Date String (YYYY-MM-DD hh:mm:ss) UTC,Instrument flags,Ambient pressure (hPa),Sample flow (lpm),Bypass flow (lpm),Sample temperature (°C),Ambient temperature (°C),ASC tube jacket temperature (°C),LED temperature (°C),Box temperature (°C),Sample RH (%),Span deviation,Mass concentration (μg/m³),Mass concentration (μg/m³),Mass concentration (μg/m³)
DateTimeUTC,F1_M11,P_M11,Q1_M11,Q2_M11,T1_M11,T2_M11,T3_M11,T4_M11,T5_M11,U1_M11,ZSPAN_M11,X0_M11,X2_M11,X1_M11
2022-10-17 20:00:00,,0832.0,4.99,0.00,29.1,28.0,00.0,37.8,30.9,12.5,0000.0,0012.27,0006.29,0005.74
2022-10-17 20:01:00,,0832.0,5.00,0.00,29.1,28.0,00.0,37.8,31.0,12.4,0000.0,0011.75,0006.26,0005.71
2022-10-17 20:02:00,,0831.9,5.01,0.00,29.1,28.0,00.0,37.8,31.0,12.5,0000.0,0011.90,0006.28,0005.68
2022-10-17 20:03:00,,0831.9,5.01,0.00,29.1,28.0,00.0,37.8,31.0,12.4,0000.0,0011.28,0006.20,0005.64
2022-10-17 20:04:00,,0831.8,5.01,0.00,29.1,28.0,00.0,37.8,31.0,12.5,0000.0,0010.77,0006.17,0005.61
2022-10-17 20:05:00,,0831.8,4.98,0.00,29.1,28.1,00.0,37.8,31.0,12.5,0000.0,0010.83,0006.14,0005.58
2022-10-17 20:06:00,,0831.7,5.00,0.00,29.1,28.1,00.0,37.9,31.0,12.4,0000.0,0011.52,0006.13,0005.56
2022-10-17 20:07:00,,0831.7,5.00,0.00,29.2,28.1,00.0,37.9,31.0,12.4,0000.0,0011.54,0006.13,0005.54
2022-10-17 20:08:00,,0831.7,5.01,0.00,29.2,28.1,00.0,37.9,31.0,12.4,0000.0,0011.05,0006.16,0005.56
2022-10-17 20:09:00,,0831.7,5.00,0.00,29.2,28.1,00.0,37.9,31.1,12.4,0000.0,0010.69,0006.17,0005.61
2022-10-17 20:10:00,,0831.7,4.99,0.00,29.2,28.2,00.0,37.9,31.1,12.4,0000.0,0010.63,0006.18,0005.64
2022-10-17 20:11:00,,0831.7,4.99,0.00,29.2,28.2,00.0,37.9,31.1,12.3,0000.0,0010.73,0006.19,0005.65
2022-10-17 20:12:00,,0831.7,4.99,0.00,29.2,28.2,00.0,37.9,31.1,12.3,0000.0,0010.86,0006.18,0005.64
2022-10-17 20:13:00,,0831.7,5.00,0.00,29.3,28.2,00.0,38.0,31.1,12.3,0000.0,0010.90,0006.08,0005.60
2022-10-17 20:14:00,,0831.7,5.00,0.00,29.3,28.2,00.0,38.0,31.1,12.2,0000.5,0010.75,0006.05,0005.56
2022-10-17 20:15:00,,0831.7,5.00,0.00,29.3,28.3,00.0,38.0,31.1,12.3,0000.6,0010.61,0006.06,0005.55
2022-10-17 20:16:00,,0831.8,5.01,0.00,29.3,28.3,00.0,38.0,31.2,12.3,0000.7,0010.33,0006.06,0005.54
2022-10-17 20:17:00,,0831.7,5.00,0.00,29.3,28.3,00.0,38.0,31.2,12.3,0001.0,0010.07,0006.08,0005.53
2022-10-17 20:18:00,,0831.7,5.00,0.00,29.3,28.3,00.0,38.0,31.2,12.4,0000.8,0010.26,0006.08,0005.52
2022-10-17 20:19:00,,0831.7,4.99,0.00,29.4,28.4,00.0,38.1,31.3,12.4,0000.8,0010.32,0006.10,0005.53
2022-10-17 20:20:00,,0831.7,5.00,0.00,29.4,28.4,00.0,38.1,31.3,12.4,0000.2,0010.42,0006.11,0005.53
2022-10-17 20:21:00,,0831.7,5.00,0.00,29.4,28.4,00.0,38.1,31.3,12.4,0001.4,0010.93,0006.10,0005.52
2022-10-17 20:22:00,,0831.7,5.00,0.00,29.4,28.4,00.0,38.1,31.3,12.4,0001.9,0011.16,0006.11,0005.53
2022-10-17 20:23:00,,0831.6,5.00,0.00,29.4,28.4,00.0,38.1,31.3,12.3,0000.0,0011.54,0006.12,0005.53
2022-10-17 20:24:00,,0831.7,4.99,0.00,29.5,28.4,00.0,38.2,31.3,12.4,0000.0,0011.97,0006.22,0005.56
2022-10-17 20:25:00,,0831.6,5.00,0.00,29.5,28.4,00.0,38.2,31.3,12.3,0000.0,0012.35,0006.26,0005.60
2022-10-17 20:26:00,,0831.6,5.00,0.00,29.5,28.4,00.0,38.2,31.3,12.3,0000.0,0012.44,0006.28,0005.62
2022-10-17 20:27:00,,0831.6,5.00,0.00,29.5,28.5,00.0,38.2,31.4,12.3,0000.0,0013.95,0006.30,0005.65
2022-10-17 20:28:00,,0831.6,5.00,0.00,29.5,28.5,00.0,38.2,31.4,12.3,0000.0,0014.00,0006.33,0005.68
2022-10-17 20:29:00,,0831.6,5.00,0.00,29.5,28.5,00.0,38.2,31.4,12.3,0000.0,0013.68,0006.33,0005.69
2022-10-17 20:30:00,,0831.5,5.00,0.00,29.5,28.5,00.0,38.3,31.4,12.3,0000.0,0014.18,0006.32,0005.69
2022-10-17 20:31:00,,0831.5,4.99,0.00,29.6,28.5,00.0,38.3,31.4,12.2,0000.0,0014.80,0006.33,0005.70
2022-10-17 20:32:00,,0831.5,4.99,0.00,29.6,28.5,00.0,38.3,31.4,12.2,0000.0,0014.42,0006.35,0005.71
2022-10-17 20:33:00,,0831.5,5.01,0.00,29.6,28.5,00.0,38.3,31.4,12.3,0000.0,0014.23,0006.35,0005.72
2022-10-17 20:34:00,,0831.5,5.01,0.00,29.6,28.5,00.0,38.3,31.5,12.3,0000.0,0013.74,0006.33,0005.73
2022-10-17 20:35:00,,0831.5,5.00,0.00,29.6,28.5,00.0,38.3,31.5,12.3,0000.0,0013.35,0006.29,0005.74
2022-10-17 20:36:00,,0831.5,5.00,0.00,29.6,28.5,00.0,38.3,31.5,12.2,0000.0,0013.79,0006.33,0005.76
2022-10-17 20:37:00,,0831.5,5.00,0.00,29.6,28.5,00.0,38.3,31.5,12.2,0000.0,0013.87,0006.35,0005.78
2022-10-17 20:38:00,,0831.5,4.99,0.00,29.6,28.6,00.0,38.4,31.5,12.3,0000.0,0013.36,0006.36,0005.79
2022-10-17 20:39:00,,0831.5,5.00,0.00,29.7,28.6,00.0,38.4,31.5,12.2,0000.0,0012.68,0006.37,0005.81
2022-10-17 20:40:00,,0831.5,5.00,0.00,29.7,28.6,00.0,38.4,31.5,12.2,0001.0,0013.21,0006.37,0005.84
2022-10-17 20:41:00,,0831.5,5.00,0.00,29.7,28.6,00.0,38.4,31.5,12.3,0000.1,0013.42,0006.40,0005.87
2022-10-17 20:42:00,,0831.6,5.01,0.00,29.7,28.7,00.0,38.4,31.6,12.3,0000.0,0013.47,0006.41,0005.86
2022-10-17 20:43:00,,0831.5,5.00,0.00,29.7,28.6,00.0,38.4,31.6,12.2,0000.0,0014.19,0006.40,0005.85
2022-10-17 20:44:00,,0831.5,4.99,0.00,29.8,28.6,00.0,38.5,31.6,12.2,0000.0,0014.20,0006.36,0005.82
2022-10-17 20:45:00,,0831.5,5.00,0.00,29.8,28.7,00.0,38.5,31.6,12.2,0000.0,0014.18,0006.39,0005.83
2022-10-17 20:46:00,,0831.5,5.01,0.00,29.8,28.7,00.0,38.5,31.6,12.1,0000.0,0013.96,0006.39,0005.81
2022-10-17 20:47:00,,0831.5,4.98,0.00,29.8,28.7,00.0,38.5,31.7,12.2,0000.0,0013.28,0006.34,0005.81
2022-10-17 20:48:00,,0831.4,4.99,0.00,29.8,28.7,00.0,38.5,31.7,12.3,0000.0,0013.33,0006.33,0005.79
2022-10-17 20:49:00,,0831.5,5.01,0.00,29.8,28.7,00.0,38.5,31.7,12.2,0001.5,0012.88,0006.31,0005.78
2022-10-17 20:50:00,,0831.5,5.01,0.00,29.8,28.7,00.0,38.5,31.7,12.2,0002.0,0012.81,0006.34,0005.77
2022-10-17 20:51:00,,0831.5,5.00,0.00,29.8,28.7,00.0,38.5,31.7,12.1,0002.1,0012.26,0006.31,0005.75
2022-10-17 20:52:00,,0831.4,4.99,0.00,29.9,28.7,00.0,38.6,31.7,12.1,0002.1,0011.67,0006.29,0005.75
2022-10-17 20:53:00,,0831.4,4.99,0.00,29.9,28.7,00.0,38.6,31.7,12.2,0003.6,0011.21,0006.29,0005.75
2022-10-17 20:54:00,,0831.4,5.00,0.00,29.9,28.8,00.0,38.6,31.7,12.2,0002.5,0010.67,0006.30,0005.75
2022-10-17 20:55:00,,0831.4,5.01,0.00,29.9,28.8,00.0,38.6,31.7,12.3,0003.2,0010.46,0006.32,0005.77
2022-10-17 20:56:00,,0831.4,5.00,0.00,29.9,28.8,00.0,38.6,31.7,12.2,0003.2,0010.53,0006.34,0005.78
2022-10-17 20:57:00,,0831.4,5.00,0.00,29.9,28.8,00.0,38.6,31.8,12.2,0003.4,0010.54,0006.32,0005.79
2022-10-17 20:58:00,,0831.4,4.99,0.00,29.9,28.8,00.0,38.6,31.7,12.4,0003.7,0010.48,0006.30,0005.78
2022-10-17 20:59:00,,0831.4,4.99,0.00,29.9,28.8,00.0,38.6,31.8,12.4,0000.9,0010.38,0006.26,0005.77
